Zurück zum Katalog

STARLINK-2068

AktivKommunikationVLEO
NORAD 47722·PAYLOAD·🇺🇸 United States

Gestartet Mar 4, 2021 von Cape Canaveral Space Force Station

Loading…

Nächste Überflüge (nächste 24 Stunden)

TLE

AktuellSource: CelesTrak SupGP

Epoche: Sep 14, 2026, 23:49 UTC

1 47722C 21017A   26257.99284722 -.00027514  00000+0 -88458-3 0  2571
2 47722  53.1592  30.0395 0001005  93.0792 257.5332 15.31722638    11

Verfolge STARLINK-2068 in Echtzeit mit AllMySat

Download on the App Store